Weather in New Bukhtarma

Kazakhstan     49°37′37″N   83°31′07″E
temp.,
°C
wind,
m/s
gust,
m/s
humid.,
%
clouds,
%
prec.,
mm/h
press.,
hPa
HPBL,
m
24 september, fri
fri2400:00+1nw337199 0.0 102236
03:000nw337797 0.0 102229
06:00−1nw338497 0.0 102356
09:00+2wnw567882 0.0 1024602
12:00+5nw665443 0.0 10241062
15:00+5nw785232 0.0 10251142
18:00+2nw58678 0.0 1028447
21:00−2nw34915 0.0 103149
25 september, sat
sat2500:00−3nw339340 0.0 103139
03:00−3nw2293100 0.0 103130
06:00−4nw22926 0.0 103218
09:00+2wnw22645 0.0 1031557
12:00+6wsw23405 0.0 10281235
15:00+9sw233397 0.0 10251318
18:00+4nw114433 0.0 102411
21:00+1nne22545 0.0 102510
26 september, sun
sun2600:000ne11580 0.0 102310
03:00−1ene11660 0.0 102210
06:00−2e21730 0.0 102210
09:00+5sse23449 0.0 1020450
12:00+10w58274 0.0 10181890
15:00+9wnw8103719 0.0 10181985
18:00+3wnw68580 0.0 1020326
21:00−2nw44750 0.0 102246
27 september, mon
mon2700:00−4nw448226 0.0 102246
03:00−5nnw33855 0.0 102239
06:00−6nnw338645 0.0 102328
09:00+1nw114994 0.0 1021357
12:00+6ssw222620 0.0 10181113
15:00+8ssw3220100 0.0 10161198
18:00+5wsw2241100 0.2 101621
21:00+3n1151100 0.1 101713
28 september, tue
tue2800:00+1ese015655 0.2 101710
03:00+1ne1155100 0.0 101810
06:000ene11585 0.0 101910
09:00+5ese234490 0.0 1019369
12:00+10se332698 0.0 1017794
15:00+11se3322100 0.0 1014728
18:00+8e2229100 0.0 101319
21:00+7ene2229100 0.0 101224